Time,TemperatureF,DewpointF,PressureIn,WindDirection,WindDirectionDegrees,WindSpeedMPH,WindSpeedGustMPH,Humidity,HourlyPrecipIn,Conditions,Clouds,dailyrainin,SoftwareType,DateUTC
2013-03-18 00:01:00,64.2,26.7,29.86,WSW,248,4.0,5.0,24,0.00,,,0.00,WeatherCatV1.02B3,2013-03-18 07:01:00,
2013-03-18 00:06:00,64.7,27.1,29.86,WSW,244,5.0,8.0,24,0.00,,,0.00,WeatherCatV1.02B3,2013-03-18 07:06:00,
2013-03-18 00:11:00,65.4,26.6,29.86,SW,231,2.0,6.0,23,0.00,,,0.00,WeatherCatV1.02B3,2013-03-18 07:11:00,
2013-03-18 00:16:00,65.1,27.4,29.86,SW,227,2.0,3.0,24,0.00,,,0.00,WeatherCatV1.02B3,2013-03-18 07:16:00,
2013-03-18 00:21:00,64.7,28.1,29.86,WSW,247,3.0,5.0,25,0.00,,,0.00,WeatherCatV1.02B3,2013-03-18 07:21:00,
2013-03-18 00:26:00,64.5,27.9,29.86,SW,226,2.0,3.0,25,0.00,,,0.00,WeatherCatV1.02B3,2013-03-18 07:26:00,
2013-03-18 00:31:00,64.1,27.6,29.86,ESE,109,3.0,4.0,25,0.00,,,0.00,WeatherCatV1.02B3,2013-03-18 07:31:00,
2013-03-18 00:36:00,62.7,27.3,29.87,South,184,2.0,6.0,26,0.00,,,0.00,WeatherCatV1.02B3,2013-03-18 07:36:00,
2013-03-18 00:41:00,62.2,26.0,29.87,SSE,150,5.0,8.0,25,0.00,,,0.00,WeatherCatV1.02B3,2013-03-18 07:41:00,
2013-03-18 00:46:00,62.1,25.9,29.87,South,171,3.0,5.0,25,0.00,,,0.00,WeatherCatV1.02B3,2013-03-18 07:46:00,
2013-03-18 00:51:00,62.0,25.8,29.86,South,170,2.0,4.0,25,0.00,,,0.00,WeatherCatV1.02B3,2013-03-18 07:51:00,
2013-03-18 00:56:00,61.7,25.5,29.87,SE,141,2.0,3.0,25,0.00,,,0.00,WeatherCatV1.02B3,2013-03-18 07:56:00,
2013-03-18 01:01:00,61.4,25.3,29.87,SSE,152,1.0,2.0,25,0.00,,,0.00,WeatherCatV1.02B3,2013-03-18 08:01:00,
2013-03-18 01:06:00,61.1,26.0,29.87,SSE,153,0.0,0.0,26,0.00,,,0.00,WeatherCatV1.02B3,2013-03-18 08:06:00,
2013-03-18 01:11:00,60.6,25.5,29.87,South,173,0.0,2.0,26,0.00,,,0.00,WeatherCatV1.02B3,2013-03-18 08:11:00,
2013-03-18 01:16:00,60.3,25.3,29.87,South,173,0.0,0.0,26,0.00,,,0.00,WeatherCatV1.02B3,2013-03-18 08:16:00,
2013-03-18 01:21:00,60.0,25.0,29.87,South,173,1.0,1.0,26,0.00,,,0.00,WeatherCatV1.02B3,2013-03-18 08:21:00,
2013-03-18 01:26:00,59.8,24.9,29.87,South,173,1.0,2.0,26,0.00,,,0.00,WeatherCatV1.02B3,2013-03-18 08:26:00,
2013-03-18 01:31:00,60.2,25.2,29.87,WSW,248,1.0,2.0,26,0.00,,,0.00,WeatherCatV1.02B3,2013-03-18 08:31:00,
2013-03-18 01:36:00,60.4,25.4,29.87,East,88,1.0,2.0,26,0.00,,,0.00,WeatherCatV1.02B3,2013-03-18 08:36:00,
2013-03-18 01:41:00,59.6,25.6,29.87,East,88,1.0,2.0,27,0.00,,,0.00,WeatherCatV1.02B3,2013-03-18 08:41:00,
2013-03-18 01:46:00,58.6,25.6,29.87,East,88,0.0,0.0,28,0.00,,,0.00,WeatherCatV1.02B3,2013-03-18 08:46:00,
2013-03-18 01:51:00,57.7,25.7,29.87,East,88,0.0,0.0,29,0.00,,,0.00,WeatherCatV1.02B3,2013-03-18 08:51:00,
2013-03-18 01:56:00,56.9,25.0,29.88,East,88,1.0,1.0,29,0.00,,,0.00,WeatherCatV1.02B3,2013-03-18 08:56:00,
2013-03-18 02:01:00,56.5,25.4,29.87,East,88,1.0,1.0,30,0.00,,,0.00,WeatherCatV1.02B3,2013-03-18 09:01:00,
2013-03-18 02:06:00,56.0,25.0,29.87,East,88,0.0,1.0,30,0.00,,,0.00,WeatherCatV1.02B3,2013-03-18 09:06:00,
2013-03-18 02:11:00,55.4,25.3,29.87,East,88,1.0,1.0,31,0.00,,,0.00,WeatherCatV1.02B3,2013-03-18 09:11:00,
2013-03-18 02:16:00,55.0,24.9,29.87,East,88,0.0,0.0,31,0.00,,,0.00,WeatherCatV1.02B3,2013-03-18 09:16:00,
2013-03-18 02:21:00,54.6,25.3,29.87,East,88,0.0,1.0,32,0.00,,,0.00,WeatherCatV1.02B3,2013-03-18 09:21:00,
2013-03-18 02:26:00,54.4,25.2,29.87,East,88,0.0,0.0,32,0.00,,,0.00,WeatherCatV1.02B3,2013-03-18 09:26:00,
2013-03-18 02:31:00,54.0,25.6,29.87,East,88,1.0,1.0,33,0.00,,,0.00,WeatherCatV1.02B3,2013-03-18 09:31:00,
2013-03-18 02:36:00,54.0,25.6,29.87,East,88,0.0,0.0,33,0.00,,,0.00,WeatherCatV1.02B3,2013-03-18 09:36:00,
2013-03-18 02:41:00,53.8,25.4,29.87,East,88,1.0,2.0,33,0.00,,,0.00,WeatherCatV1.02B3,2013-03-18 09:41:00,
2013-03-18 02:46:00,53.9,25.5,29.87,East,88,1.0,2.0,33,0.00,,,0.00,WeatherCatV1.02B3,2013-03-18 09:46:00,
2013-03-18 02:51:00,54.1,25.6,29.87,East,88,1.0,1.0,33,0.00,,,0.00,WeatherCatV1.02B3,2013-03-18 09:51:00,
2013-03-18 02:56:00,54.2,25.7,29.87,East,88,1.0,2.0,33,0.00,,,0.00,WeatherCatV1.02B3,2013-03-18 09:56:00,
2013-03-18 03:01:00,54.1,25.6,29.87,East,88,0.0,0.0,33,0.00,,,0.00,WeatherCatV1.02B3,2013-03-18 10:01:00,
2013-03-18 03:06:00,53.6,25.9,29.87,East,88,0.0,0.0,34,0.00,,,0.00,WeatherCatV1.02B3,2013-03-18 10:06:00,
2013-03-18 03:11:00,53.0,26.1,29.87,East,88,1.0,1.0,35,0.00,,,0.00,WeatherCatV1.02B3,2013-03-18 10:11:00,
2013-03-18 03:16:00,52.5,25.6,29.86,East,88,1.0,1.0,35,0.00,,,0.00,WeatherCatV1.02B3,2013-03-18 10:16:00,
2013-03-18 03:21:00,52.6,25.7,29.86,East,88,0.0,2.0,35,0.00,,,0.00,WeatherCatV1.02B3,2013-03-18 10:21:00,
2013-03-18 03:26:00,52.7,25.8,29.86,East,88,0.0,0.0,35,0.00,,,0.00,WeatherCatV1.02B3,2013-03-18 10:26:00,
2013-03-18 03:31:00,52.4,25.6,29.87,East,88,0.0,0.0,35,0.00,,,0.00,WeatherCatV1.02B3,2013-03-18 10:31:00,
2013-03-18 03:36:00,52.0,25.9,29.86,East,88,0.0,0.0,36,0.00,,,0.00,WeatherCatV1.02B3,2013-03-18 10:36:00,
2013-03-18 03:41:00,51.7,26.3,29.87,East,88,0.0,0.0,37,0.00,,,0.00,WeatherCatV1.02B3,2013-03-18 10:41:00,
2013-03-18 03:46:00,52.0,25.9,29.86,East,88,1.0,1.0,36,0.00,,,0.00,WeatherCatV1.02B3,2013-03-18 10:46:00,
2013-03-18 03:51:00,52.1,26.6,29.86,East,88,0.0,0.0,37,0.00,,,0.00,WeatherCatV1.02B3,2013-03-18 10:51:00,
2013-03-18 03:56:00,51.7,26.3,29.86,East,88,1.0,1.0,37,0.00,,,0.00,WeatherCatV1.02B3,2013-03-18 10:56:00,
2013-03-18 04:01:00,51.3,25.9,29.86,East,88,1.0,1.0,37,0.00,,,0.00,WeatherCatV1.02B3,2013-03-18 11:01:00,
2013-03-18 04:06:00,51.2,26.5,29.86,East,85,1.0,2.0,38,0.00,,,0.00,WeatherCatV1.02B3,2013-03-18 11:06:00,
2013-03-18 04:11:00,51.2,26.5,29.86,East,82,0.0,0.0,38,0.00,,,0.00,WeatherCatV1.02B3,2013-03-18 11:11:00,
2013-03-18 04:16:00,51.0,26.3,29.86,East,82,2.0,2.0,38,0.00,,,0.00,WeatherCatV1.02B3,2013-03-18 11:16:00,
2013-03-18 04:21:00,50.8,26.1,29.86,South,179,0.0,2.0,38,0.00,,,0.00,WeatherCatV1.02B3,2013-03-18 11:21:00,
2013-03-18 04:26:00,50.7,26.0,29.86,South,179,0.0,0.0,38,0.00,,,0.00,WeatherCatV1.02B3,2013-03-18 11:26:00,
2013-03-18 04:31:00,50.6,25.9,29.86,South,179,0.0,0.0,38,0.00,,,0.00,WeatherCatV1.02B3,2013-03-18 11:31:00,
2013-03-18 04:36:00,50.7,26.0,29.86,South,179,1.0,1.0,38,0.00,,,0.00,WeatherCatV1.02B3,2013-03-18 11:36:00,
2013-03-18 04:41:00,51.2,26.5,29.87,WSW,240,2.0,2.0,38,0.00,,,0.00,WeatherCatV1.02B3,2013-03-18 11:41:00,
2013-03-18 04:46:00,51.7,26.3,29.87,WSW,241,1.0,2.0,37,0.00,,,0.00,WeatherCatV1.02B3,2013-03-18 11:46:00,
2013-03-18 04:51:00,52.0,26.5,29.87,WSW,241,0.0,0.0,37,0.00,,,0.00,WeatherCatV1.02B3,2013-03-18 11:51:00,
2013-03-18 04:56:00,51.9,26.5,29.88,WSW,241,0.0,1.0,37,0.00,,,0.00,WeatherCatV1.02B3,2013-03-18 11:56:00,
2013-03-18 05:01:00,51.6,26.8,29.88,WSW,241,1.0,1.0,38,0.00,,,0.00,WeatherCatV1.02B3,2013-03-18 12:01:00,
2013-03-18 05:06:00,51.0,26.9,29.88,WSW,241,0.0,1.0,39,0.00,,,0.00,WeatherCatV1.02B3,2013-03-18 12:06:00,
2013-03-18 05:11:00,50.8,26.7,29.88,WSW,241,0.0,0.0,39,0.00,,,0.00,WeatherCatV1.02B3,2013-03-18 12:11:00,
2013-03-18 05:15:00,50.5,27.1,29.88,WSW,241,1.0,1.0,40,0.00,,,0.00,WeatherCatV1.02B3,2013-03-18 12:15:00,
2013-03-18 05:20:00,50.3,26.9,29.88,WSW,245,2.0,2.0,40,0.00,,,0.00,WeatherCatV1.02B3,2013-03-18 12:20:00,
2013-03-18 05:25:00,50.1,26.7,29.88,WSW,245,0.0,1.0,40,0.00,,,0.00,WeatherCatV1.02B3,2013-03-18 12:25:00,
2013-03-18 05:30:00,50.2,26.8,29.89,WSW,245,0.0,2.0,40,0.00,,,0.00,WeatherCatV1.02B3,2013-03-18 12:30:00,
2013-03-18 05:35:00,50.3,26.9,29.89,WSW,245,0.0,1.0,40,0.00,,,0.00,WeatherCatV1.02B3,2013-03-18 12:35:00,
2013-03-18 05:40:00,50.2,26.8,29.89,WSW,245,0.0,0.0,40,0.00,,,0.00,WeatherCatV1.02B3,2013-03-18 12:40:00,
2013-03-18 05:45:00,50.0,26.6,29.89,WSW,245,0.0,0.0,40,0.00,,,0.00,WeatherCatV1.02B3,2013-03-18 12:45:00,
2013-03-18 05:50:00,49.8,27.1,29.90,WSW,245,0.0,0.0,41,0.00,,,0.00,WeatherCatV1.02B3,2013-03-18 12:50:00,
2013-03-18 05:55:00,50.1,26.7,29.90,WSW,245,0.0,0.0,40,0.00,,,0.00,WeatherCatV1.02B3,2013-03-18 12:55:00,
2013-03-18 06:00:00,50.4,27.0,29.90,WSW,245,0.0,0.0,40,0.00,,,0.00,WeatherCatV1.02B3,2013-03-18 13:00:00,
2013-03-18 06:05:00,50.5,27.1,29.90,WSW,245,1.0,1.0,40,0.00,,,0.00,WeatherCatV1.02B3,2013-03-18 13:05:00,
2013-03-18 06:10:00,50.5,27.1,29.90,WSW,245,0.0,0.0,40,0.00,,,0.00,WeatherCatV1.02B3,2013-03-18 13:10:00,
2013-03-18 06:15:00,50.2,27.4,29.90,WSW,245,0.0,0.0,41,0.00,,,0.00,WeatherCatV1.02B3,2013-03-18 13:15:00,
2013-03-18 06:20:00,49.9,27.1,29.91,WSW,247,0.0,0.0,41,0.00,,,0.00,WeatherCatV1.02B3,2013-03-18 13:20:00,
2013-03-18 06:25:00,49.6,27.5,29.91,WSW,247,1.0,2.0,42,0.00,,,0.00,WeatherCatV1.02B3,2013-03-18 13:25:00,
2013-03-18 06:30:00,49.5,27.4,29.91,WSW,247,0.0,1.0,42,0.00,,,0.00,WeatherCatV1.02B3,2013-03-18 13:30:00,
2013-03-18 06:35:00,49.4,27.9,29.92,WSW,252,0.0,1.0,43,0.00,,,0.00,WeatherCatV1.02B3,2013-03-18 13:35:00,
2013-03-18 06:40:00,49.5,27.9,29.92,WSW,252,0.0,0.0,43,0.00,,,0.00,WeatherCatV1.02B3,2013-03-18 13:40:00,
2013-03-18 06:45:00,49.6,28.0,29.92,WSW,252,0.0,0.0,43,0.00,,,0.00,WeatherCatV1.02B3,2013-03-18 13:45:00,
2013-03-18 06:50:00,49.7,28.1,29.92,WSW,252,0.0,0.0,43,0.00,,,0.00,WeatherCatV1.02B3,2013-03-18 13:50:00,
2013-03-18 06:55:00,49.9,28.3,29.93,WSW,252,0.0,0.0,43,0.00,,,0.00,WeatherCatV1.02B3,2013-03-18 13:55:00,
2013-03-18 07:00:00,50.3,28.7,29.93,WSW,252,0.0,0.0,43,0.00,,,0.00,WeatherCatV1.02B3,2013-03-18 14:00:00,
2013-03-18 07:05:00,51.0,28.7,29.93,WSW,252,0.0,0.0,42,0.00,,,0.00,WeatherCatV1.02B3,2013-03-18 14:05:00,
2013-03-18 07:10:00,51.7,28.8,29.93,WSW,252,0.0,0.0,41,0.00,,,0.00,WeatherCatV1.02B3,2013-03-18 14:10:00,
2013-03-18 07:15:00,52.3,29.3,29.93,WSW,252,0.0,0.0,41,0.00,,,0.00,WeatherCatV1.02B3,2013-03-18 14:15:00,
2013-03-18 07:20:00,52.8,29.2,29.94,WSW,252,0.0,0.0,40,0.00,,,0.00,WeatherCatV1.02B3,2013-03-18 14:20:00,
2013-03-18 07:25:00,53.8,29.4,29.94,WSW,252,0.0,0.0,39,0.00,,,0.00,WeatherCatV1.02B3,2013-03-18 14:25:00,
2013-03-18 07:30:00,55.1,29.3,29.94,WSW,252,1.0,1.0,37,0.00,,,0.00,WeatherCatV1.02B3,2013-03-18 14:30:00,
2013-03-18 07:35:00,56.1,29.5,29.94,WSW,252,0.0,0.0,36,0.00,,,0.00,WeatherCatV1.02B3,2013-03-18 14:35:00,
2013-03-18 07:40:00,57.0,29.6,29.94,WSW,252,0.0,1.0,35,0.00,,,0.00,WeatherCatV1.02B3,2013-03-18 14:40:00,
2013-03-18 07:45:00,57.9,29.7,29.94,WSW,252,0.0,0.0,34,0.00,,,0.00,WeatherCatV1.02B3,2013-03-18 14:45:00,
2013-03-18 07:50:00,58.7,29.7,29.94,SE,138,1.0,2.0,33,0.00,,,0.00,WeatherCatV1.02B3,2013-03-18 14:50:00,
2013-03-18 07:55:00,59.1,30.0,29.95,SE,134,0.0,3.0,33,0.00,,,0.00,WeatherCatV1.02B3,2013-03-18 14:55:00,
2013-03-18 08:00:00,59.5,29.6,29.94,SE,136,0.0,2.0,32,0.00,,,0.00,WeatherCatV1.02B3,2013-03-18 15:00:00,
2013-03-18 08:05:00,60.1,30.1,29.94,ESE,123,0.0,2.0,32,0.00,,,0.00,WeatherCatV1.02B3,2013-03-18 15:05:00,
2013-03-18 08:10:00,60.9,30.1,29.94,ESE,123,0.0,1.0,31,0.00,,,0.00,WeatherCatV1.02B3,2013-03-18 15:10:00,
2013-03-18 08:15:00,61.4,30.5,29.94,ESE,115,2.0,3.0,31,0.00,,,0.00,WeatherCatV1.02B3,2013-03-18 15:15:00,
2013-03-18 08:20:00,61.5,30.6,29.94,ESE,121,2.0,3.0,31,0.00,,,0.00,WeatherCatV1.02B3,2013-03-18 15:20:00,
2013-03-18 08:25:00,61.8,30.8,29.95,ESE,119,1.0,2.0,31,0.00,,,0.00,WeatherCatV1.02B3,2013-03-18 15:25:00,
2013-03-18 08:30:00,62.5,30.6,29.95,SSE,163,1.0,4.0,30,0.00,,,0.00,WeatherCatV1.02B3,2013-03-18 15:30:00,
2013-03-18 08:35:00,63.1,31.2,29.95,East,94,3.0,3.0,30,0.00,,,0.00,WeatherCatV1.02B3,2013-03-18 15:35:00,
2013-03-18 08:40:00,63.5,30.7,29.95,SSE,147,1.0,2.0,29,0.00,,,0.00,WeatherCatV1.02B3,2013-03-18 15:40:00,
2013-03-18 08:45:00,64.0,31.1,29.95,ESE,107,2.0,4.0,29,0.00,,,0.00,WeatherCatV1.02B3,2013-03-18 15:45:00,
2013-03-18 08:50:00,64.4,31.5,29.95,SSE,152,0.0,0.0,29,0.00,,,0.00,WeatherCatV1.02B3,2013-03-18 15:50:00,
2013-03-18 08:55:00,65.0,32.0,29.95,ESE,115,1.0,3.0,29,0.00,,,0.00,WeatherCatV1.02B3,2013-03-18 15:55:00,
2013-03-18 09:00:00,65.5,31.5,29.95,SE,144,2.0,4.0,28,0.00,,,0.00,WeatherCatV1.02B3,2013-03-18 16:00:00,
2013-03-18 09:05:00,66.0,32.0,29.95,WNW,286,3.0,3.0,28,0.00,,,0.00,WeatherCatV1.02B3,2013-03-18 16:05:00,
2013-03-18 09:10:00,66.5,32.4,29.95,NE,55,2.0,3.0,28,0.00,,,0.00,WeatherCatV1.02B3,2013-03-18 16:10:00,
2013-03-18 09:15:00,67.0,32.8,29.95,NE,48,4.0,5.0,28,0.00,,,0.00,WeatherCatV1.02B3,2013-03-18 16:15:00,
2013-03-18 09:20:00,67.4,32.3,29.95,SE,126,2.0,2.0,27,0.00,,,0.00,WeatherCatV1.02B3,2013-03-18 16:20:00,
2013-03-18 09:25:00,68.1,32.9,29.95,SE,128,2.0,4.0,27,0.00,,,0.00,WeatherCatV1.02B3,2013-03-18 16:25:00,
2013-03-18 09:30:00,69.0,32.7,29.95,ESE,105,1.0,2.0,26,0.00,,,0.00,WeatherCatV1.02B3,2013-03-18 16:30:00,
2013-03-18 09:35:00,69.9,33.4,29.95,SE,136,1.0,1.0,26,0.00,,,0.00,WeatherCatV1.02B3,2013-03-18 16:35:00,
2013-03-18 09:40:00,70.3,32.8,29.95,South,171,3.0,3.0,25,0.00,,,0.00,WeatherCatV1.02B3,2013-03-18 16:40:00,
2013-03-18 09:45:00,70.8,33.2,29.95,ESE,104,2.0,3.0,25,0.00,,,0.00,WeatherCatV1.02B3,2013-03-18 16:45:00,
2013-03-18 09:50:00,71.1,32.5,29.95,East,83,2.0,6.0,24,0.00,,,0.00,WeatherCatV1.02B3,2013-03-18 16:50:00,
2013-03-18 09:55:00,71.2,33.6,29.95,SE,126,1.0,1.0,25,0.00,,,0.00,WeatherCatV1.02B3,2013-03-18 16:55:00,
2013-03-18 10:00:00,71.5,32.8,29.95,SE,130,1.0,5.0,24,0.00,,,0.00,WeatherCatV1.02B3,2013-03-18 17:00:00,
2013-03-18 10:05:00,72.2,33.4,29.95,ESE,115,1.0,1.0,24,0.00,,,0.00,WeatherCatV1.02B3,2013-03-18 17:05:00,
2013-03-18 10:10:00,72.9,32.9,29.95,ESE,117,2.0,6.0,23,0.00,,,0.00,WeatherCatV1.02B3,2013-03-18 17:10:00,
2013-03-18 10:15:00,73.5,32.3,29.95,SE,142,2.0,2.0,22,0.00,,,0.00,WeatherCatV1.02B3,2013-03-18 17:15:00,
2013-03-18 10:20:00,74.5,33.1,29.95,East,96,3.0,6.0,22,0.00,,,0.00,WeatherCatV1.02B3,2013-03-18 17:20:00,
2013-03-18 10:25:00,74.3,31.8,29.95,NE,44,2.0,4.0,21,0.00,,,0.00,WeatherCatV1.02B3,2013-03-18 17:25:00,
2013-03-18 10:30:00,73.9,31.5,29.95,NE,38,3.0,5.0,21,0.00,,,0.00,WeatherCatV1.02B3,2013-03-18 17:30:00,
2013-03-18 10:35:00,74.1,31.7,29.95,East,99,2.0,3.0,21,0.00,,,0.00,WeatherCatV1.02B3,2013-03-18 17:35:00,
2013-03-18 10:40:00,74.6,30.9,29.95,NE,40,2.0,3.0,20,0.00,,,0.00,WeatherCatV1.02B3,2013-03-18 17:40:00,
2013-03-18 10:45:00,75.2,30.1,29.95,ESE,106,1.0,3.0,19,0.00,,,0.00,WeatherCatV1.02B3,2013-03-18 17:45:00,
2013-03-18 10:50:00,75.9,28.0,29.94,East,85,3.0,6.0,17,0.00,,,0.00,WeatherCatV1.02B3,2013-03-18 17:50:00,
2013-03-18 10:55:00,75.7,26.3,29.94,NW,318,0.0,3.0,16,0.00,,,0.00,WeatherCatV1.02B3,2013-03-18 17:55:00,
2013-03-18 11:00:00,76.6,27.0,29.94,WSW,238,2.0,3.0,16,0.00,,,0.00,WeatherCatV1.02B3,2013-03-18 18:00:00,
2013-03-18 11:05:00,76.9,27.3,29.94,WNW,284,1.0,4.0,16,0.00,,,0.00,WeatherCatV1.02B3,2013-03-18 18:05:00,
2013-03-18 11:10:00,76.7,27.1,29.94,West,281,1.0,3.0,16,0.00,,,0.00,WeatherCatV1.02B3,2013-03-18 18:10:00,
2013-03-18 11:15:00,77.5,26.2,29.94,SSW,202,3.0,5.0,15,0.00,,,0.00,WeatherCatV1.02B3,2013-03-18 18:15:00,
2013-03-18 11:20:00,77.9,26.5,29.94,NNE,13,0.0,3.0,15,0.00,,,0.00,WeatherCatV1.02B3,2013-03-18 18:20:00,
2013-03-18 11:25:00,78.7,27.2,29.94,NNW,334,3.0,3.0,15,0.00,,,0.00,WeatherCatV1.02B3,2013-03-18 18:25:00,
2013-03-18 11:30:00,78.4,26.9,29.94,WNW,303,5.0,6.0,15,0.00,,,0.00,WeatherCatV1.02B3,2013-03-18 18:30:00,
2013-03-18 11:35:00,77.4,24.5,29.94,NNW,342,3.0,6.0,14,0.00,,,0.00,WeatherCatV1.02B3,2013-03-18 18:35:00,
2013-03-18 11:40:00,76.8,25.6,29.94,North,0,2.0,7.0,15,0.00,,,0.00,WeatherCatV1.02B3,2013-03-18 18:40:00,
2013-03-18 11:45:00,77.0,25.8,29.93,West,281,2.0,5.0,15,0.00,,,0.00,WeatherCatV1.02B3,2013-03-18 18:45:00,
2013-03-18 11:50:00,77.5,24.5,29.93,ENE,57,2.0,7.0,14,0.00,,,0.00,WeatherCatV1.02B3,2013-03-18 18:50:00,
2013-03-18 11:55:00,78.0,23.2,29.93,NNE,32,6.0,7.0,13,0.00,,,0.00,WeatherCatV1.02B3,2013-03-18 18:55:00,
2013-03-18 12:00:00,77.9,23.1,29.93,NNW,343,4.0,5.0,13,0.00,,,0.00,WeatherCatV1.02B3,2013-03-18 19:00:00,
2013-03-18 12:05:00,78.3,23.4,29.92,ENE,57,4.0,6.0,13,0.00,,,0.00,WeatherCatV1.02B3,2013-03-18 19:05:00,
2013-03-18 12:10:00,78.5,23.6,29.92,NE,44,3.0,7.0,13,0.00,,,0.00,WeatherCatV1.02B3,2013-03-18 19:10:00,
2013-03-18 12:15:00,78.5,21.7,29.92,ESE,110,3.0,8.0,12,0.00,,,0.00,WeatherCatV1.02B3,2013-03-18 19:15:00,
2013-03-18 12:20:00,78.4,23.5,29.92,ESE,107,0.0,7.0,13,0.00,,,0.00,WeatherCatV1.02B3,2013-03-18 19:20:00,
2013-03-18 12:25:00,79.1,22.1,29.92,ESE,105,4.0,8.0,12,0.00,,,0.00,WeatherCatV1.02B3,2013-03-18 19:25:00,
2013-03-18 12:30:00,79.8,20.6,29.91,East,98,10.0,10.0,11,0.00,,,0.00,WeatherCatV1.02B3,2013-03-18 19:30:00,
2013-03-18 12:35:00,79.0,22.1,29.91,North,350,3.0,3.0,12,0.00,,,0.00,WeatherCatV1.02B3,2013-03-18 19:35:00,
2013-03-18 12:40:00,78.7,17.6,29.92,West,263,0.0,5.0,10,0.00,,,0.00,WeatherCatV1.02B3,2013-03-18 19:40:00,
2013-03-18 12:45:00,78.9,15.3,29.91,SW,225,5.0,5.0,9,0.00,,,0.00,WeatherCatV1.02B3,2013-03-18 19:45:00,
2013-03-18 12:50:00,79.6,18.2,29.91,West,272,3.0,5.0,10,0.00,,,0.00,WeatherCatV1.02B3,2013-03-18 19:50:00,
2013-03-18 12:55:00,80.0,18.5,29.91,East,93,6.0,10.0,10,0.00,,,0.00,WeatherCatV1.02B3,2013-03-18 19:55:00,
2013-03-18 13:00:00,79.3,18.0,29.91,NE,50,2.0,7.0,10,0.00,,,0.00,WeatherCatV1.02B3,2013-03-18 20:00:00,
2013-03-18 13:05:00,79.7,18.3,29.91,SW,220,0.0,3.0,10,0.00,,,0.00,WeatherCatV1.02B3,2013-03-18 20:05:00,
2013-03-18 13:10:00,80.4,21.1,29.91,WSW,248,2.0,8.0,11,0.00,,,0.00,WeatherCatV1.02B3,2013-03-18 20:10:00,
2013-03-18 13:15:00,80.8,19.2,29.90,South,180,2.0,2.0,10,0.00,,,0.00,WeatherCatV1.02B3,2013-03-18 20:15:00,
2013-03-18 13:20:00,80.9,19.2,29.90,West,265,3.0,8.0,10,0.00,,,0.00,WeatherCatV1.02B3,2013-03-18 20:20:00,
2013-03-18 13:25:00,80.9,19.2,29.90,SE,138,2.0,6.0,10,0.00,,,0.00,WeatherCatV1.02B3,2013-03-18 20:25:00,
2013-03-18 13:30:00,81.1,19.4,29.89,North,355,2.0,7.0,10,0.00,,,0.00,WeatherCatV1.02B3,2013-03-18 20:30:00,
2013-03-18 13:35:00,81.1,19.4,29.89,WSW,250,2.0,6.0,10,0.00,,,0.00,WeatherCatV1.02B3,2013-03-18 20:35:00,
2013-03-18 13:40:00,81.5,19.7,29.89,West,274,2.0,4.0,10,0.00,,,0.00,WeatherCatV1.02B3,2013-03-18 20:40:00,
2013-03-18 13:45:00,81.7,19.8,29.89,West,281,7.0,8.0,10,0.00,,,0.00,WeatherCatV1.02B3,2013-03-18 20:45:00,
2013-03-18 13:50:00,81.2,19.5,29.88,WNW,292,5.0,9.0,10,0.00,,,0.00,WeatherCatV1.02B3,2013-03-18 20:50:00,
2013-03-18 13:55:00,80.6,19.0,29.88,West,277,6.0,8.0,10,0.00,,,0.00,WeatherCatV1.02B3,2013-03-18 20:55:00,
2013-03-18 14:00:00,81.1,19.4,29.88,SE,137,1.0,6.0,10,0.00,,,0.00,WeatherCatV1.02B3,2013-03-18 21:00:00,
2013-03-18 14:05:00,81.9,20.0,29.87,South,190,6.0,7.0,10,0.00,,,0.00,WeatherCatV1.02B3,2013-03-18 21:05:00,
2013-03-18 14:10:00,82.2,20.2,29.87,NE,54,0.0,3.0,10,0.00,,,0.00,WeatherCatV1.02B3,2013-03-18 21:10:00,
2013-03-18 14:15:00,81.9,17.5,29.87,WNW,295,2.0,3.0,9,0.00,,,0.00,WeatherCatV1.02B3,2013-03-18 21:15:00,
2013-03-18 14:20:00,81.2,19.5,29.87,SW,225,3.0,8.0,10,0.00,,,0.00,WeatherCatV1.02B3,2013-03-18 21:20:00,
2013-03-18 14:25:00,81.7,19.8,29.87,WSW,253,4.0,7.0,10,0.00,,,0.00,WeatherCatV1.02B3,2013-03-18 21:25:00,
2013-03-18 14:30:00,81.6,19.8,29.87,NNW,331,4.0,10.0,10,0.00,,,0.00,WeatherCatV1.02B3,2013-03-18 21:30:00,
2013-03-18 14:35:00,81.4,19.6,29.87,WNW,288,4.0,7.0,10,0.00,,,0.00,WeatherCatV1.02B3,2013-03-18 21:35:00,
2013-03-18 14:40:00,81.4,19.6,29.87,WSW,249,3.0,8.0,10,0.00,,,0.00,WeatherCatV1.02B3,2013-03-18 21:40:00,
2013-03-18 14:45:00,81.5,19.7,29.87,NW,313,10.0,15.0,10,0.00,,,0.00,WeatherCatV1.02B3,2013-03-18 21:45:00,
2013-03-18 14:50:00,80.6,21.2,29.86,West,265,2.0,4.0,11,0.00,,,0.00,WeatherCatV1.02B3,2013-03-18 21:50:00,
2013-03-18 14:55:00,80.9,19.2,29.86,NNW,338,4.0,6.0,10,0.00,,,0.00,WeatherCatV1.02B3,2013-03-18 21:55:00,
2013-03-18 15:00:00,81.1,19.4,29.85,NW,317,4.0,5.0,10,0.00,,,0.00,WeatherCatV1.02B3,2013-03-18 22:00:00,
2013-03-18 15:05:00,81.3,21.8,29.85,SW,218,2.0,3.0,11,0.00,,,0.00,WeatherCatV1.02B3,2013-03-18 22:05:00,
2013-03-18 15:10:00,82.1,20.1,29.85,WSW,252,5.0,11.0,10,0.00,,,0.00,WeatherCatV1.02B3,2013-03-18 22:10:00,
2013-03-18 15:15:00,82.3,20.3,29.85,SSW,207,5.0,8.0,10,0.00,,,0.00,WeatherCatV1.02B3,2013-03-18 22:15:00,
2013-03-18 15:20:00,82.5,20.4,29.85,West,259,3.0,6.0,10,0.00,,,0.00,WeatherCatV1.02B3,2013-03-18 22:20:00,
2013-03-18 15:25:00,82.1,20.1,29.85,WNW,298,3.0,9.0,10,0.00,,,0.00,WeatherCatV1.02B3,2013-03-18 22:25:00,
2013-03-18 15:30:00,81.7,19.8,29.85,SW,215,4.0,5.0,10,0.00,,,0.00,WeatherCatV1.02B3,2013-03-18 22:30:00,
2013-03-18 15:35:00,82.0,20.1,29.85,NW,322,3.0,6.0,10,0.00,,,0.00,WeatherCatV1.02B3,2013-03-18 22:35:00,
2013-03-18 15:40:00,81.5,19.7,29.85,NNW,338,3.0,6.0,10,0.00,,,0.00,WeatherCatV1.02B3,2013-03-18 22:40:00,
2013-03-18 15:45:00,81.2,21.7,29.85,NW,320,6.0,11.0,11,0.00,,,0.00,WeatherCatV1.02B3,2013-03-18 22:45:00,
2013-03-18 15:50:00,80.8,19.2,29.85,North,0,5.0,9.0,10,0.00,,,0.00,WeatherCatV1.02B3,2013-03-18 22:50:00,
2013-03-18 15:55:00,81.1,21.6,29.85,SSW,203,4.0,5.0,11,0.00,,,0.00,WeatherCatV1.02B3,2013-03-18 22:55:00,
2013-03-18 16:00:00,82.0,20.1,29.85,SW,221,2.0,4.0,10,0.00,,,0.00,WeatherCatV1.02B3,2013-03-18 23:00:00,
2013-03-18 16:05:00,81.6,19.8,29.85,West,276,4.0,8.0,10,0.00,,,0.00,WeatherCatV1.02B3,2013-03-18 23:05:00,
2013-03-18 16:10:00,81.2,19.5,29.85,West,271,2.0,8.0,10,0.00,,,0.00,WeatherCatV1.02B3,2013-03-18 23:10:00,
2013-03-18 16:15:00,81.4,19.6,29.85,SW,217,10.0,11.0,10,0.00,,,0.00,WeatherCatV1.02B3,2013-03-18 23:15:00,
2013-03-18 16:20:00,81.5,19.7,29.85,NW,309,10.0,11.0,10,0.00,,,0.00,WeatherCatV1.02B3,2013-03-18 23:20:00,
2013-03-18 16:25:00,81.4,19.6,29.85,West,278,4.0,6.0,10,0.00,,,0.00,WeatherCatV1.02B3,2013-03-18 23:25:00,
2013-03-18 16:30:00,81.9,17.5,29.85,WNW,282,6.0,8.0,9,0.00,,,0.00,WeatherCatV1.02B3,2013-03-18 23:30:00,
2013-03-18 16:35:00,81.9,17.5,29.85,NW,313,6.0,6.0,9,0.00,,,0.00,WeatherCatV1.02B3,2013-03-18 23:35:00,
2013-03-18 16:40:00,81.3,17.1,29.85,WSW,252,6.0,11.0,9,0.00,,,0.00,WeatherCatV1.02B3,2013-03-18 23:40:00,
2013-03-18 16:45:00,81.2,17.0,29.85,WNW,288,2.0,3.0,9,0.00,,,0.00,WeatherCatV1.02B3,2013-03-18 23:45:00,
2013-03-18 16:50:00,81.0,19.3,29.85,West,278,4.0,5.0,10,0.00,,,0.00,WeatherCatV1.02B3,2013-03-18 23:50:00,
2013-03-18 16:55:00,80.9,19.2,29.85,West,259,7.0,9.0,10,0.00,,,0.00,WeatherCatV1.02B3,2013-03-18 23:55:00,
2013-03-18 17:00:00,81.3,17.1,29.84,WNW,283,4.0,5.0,9,0.00,,,0.00,WeatherCatV1.02B3,2013-03-19 00:00:00,
2013-03-18 17:04:00,81.1,19.4,29.85,West,278,4.0,7.0,10,0.00,,,0.00,WeatherCatV1.02B3,2013-03-19 00:04:00,
2013-03-18 17:09:00,80.4,18.9,29.85,WNW,288,8.0,9.0,10,0.00,,,0.00,WeatherCatV1.02B3,2013-03-19 00:09:00,
2013-03-18 17:14:00,79.8,18.4,29.85,NNW,338,6.0,12.0,10,0.00,,,0.00,WeatherCatV1.02B3,2013-03-19 00:14:00,
2013-03-18 17:19:00,79.8,20.6,29.84,WNW,295,3.0,3.0,11,0.00,,,0.00,WeatherCatV1.02B3,2013-03-19 00:19:00,
2013-03-18 17:24:00,80.0,20.8,29.84,NW,306,2.0,3.0,11,0.00,,,0.00,WeatherCatV1.02B3,2013-03-19 00:24:00,
2013-03-18 17:29:00,79.8,20.6,29.85,WSW,257,6.0,8.0,11,0.00,,,0.00,WeatherCatV1.02B3,2013-03-19 00:29:00,
2013-03-18 17:34:00,79.3,18.0,29.85,NW,307,4.0,8.0,10,0.00,,,0.00,WeatherCatV1.02B3,2013-03-19 00:34:00,
2013-03-18 17:39:00,79.2,17.9,29.85,WNW,296,3.0,5.0,10,0.00,,,0.00,WeatherCatV1.02B3,2013-03-19 00:39:00,
2013-03-18 17:44:00,79.2,17.9,29.85,WNW,290,4.0,6.0,10,0.00,,,0.00,WeatherCatV1.02B3,2013-03-19 00:44:00,
2013-03-18 17:49:00,79.0,17.8,29.85,NW,304,10.0,11.0,10,0.00,,,0.00,WeatherCatV1.02B3,2013-03-19 00:49:00,
2013-03-18 17:54:00,78.5,19.6,29.85,NW,306,4.0,6.0,11,0.00,,,0.00,WeatherCatV1.02B3,2013-03-19 00:54:00,
2013-03-18 17:59:00,78.2,17.2,29.86,SSW,210,6.0,8.0,10,0.00,,,0.00,WeatherCatV1.02B3,2013-03-19 00:59:00,
2013-03-18 18:04:00,78.2,19.4,29.86,WNW,286,5.0,5.0,11,0.00,,,0.00,WeatherCatV1.02B3,2013-03-19 01:04:00,
2013-03-18 18:09:00,77.7,22.9,29.86,WNW,303,5.0,6.0,13,0.00,,,0.00,WeatherCatV1.02B3,2013-03-19 01:09:00,
2013-03-18 18:14:00,76.6,23.8,29.86,NW,315,9.0,10.0,14,0.00,,,0.00,WeatherCatV1.02B3,2013-03-19 01:14:00,
2013-03-18 18:19:00,75.8,24.9,29.86,NW,324,5.0,10.0,15,0.00,,,0.00,WeatherCatV1.02B3,2013-03-19 01:19:00,
2013-03-18 18:24:00,75.5,24.6,29.86,NNW,347,7.0,8.0,15,0.00,,,0.00,WeatherCatV1.02B3,2013-03-19 01:24:00,
2013-03-18 18:29:00,75.2,25.9,29.86,North,5,4.0,9.0,16,0.00,,,0.00,WeatherCatV1.02B3,2013-03-19 01:29:00,
2013-03-18 18:34:00,75.0,24.2,29.86,NW,317,2.0,6.0,15,0.00,,,0.00,WeatherCatV1.02B3,2013-03-19 01:34:00,
2013-03-18 18:39:00,74.6,25.4,29.86,NW,304,3.0,7.0,16,0.00,,,0.00,WeatherCatV1.02B3,2013-03-19 01:39:00,
2013-03-18 18:44:00,74.3,25.2,29.86,NW,305,4.0,7.0,16,0.00,,,0.00,WeatherCatV1.02B3,2013-03-19 01:44:00,
2013-03-18 18:49:00,74.0,25.0,29.86,WNW,302,3.0,6.0,16,0.00,,,0.00,WeatherCatV1.02B3,2013-03-19 01:49:00,
2013-03-18 18:54:00,73.7,24.7,29.86,WNW,282,5.0,5.0,16,0.00,,,0.00,WeatherCatV1.02B3,2013-03-19 01:54:00,
2013-03-18 18:59:00,73.8,24.8,29.86,NNW,333,5.0,7.0,16,0.00,,,0.00,WeatherCatV1.02B3,2013-03-19 01:59:00,
2013-03-18 19:04:00,73.7,24.7,29.87,NW,317,6.0,6.0,16,0.00,,,0.00,WeatherCatV1.02B3,2013-03-19 02:04:00,
2013-03-18 19:09:00,73.6,24.6,29.87,NW,311,3.0,9.0,16,0.00,,,0.00,WeatherCatV1.02B3,2013-03-19 02:09:00,
2013-03-18 19:14:00,73.5,24.6,29.87,WNW,300,3.0,5.0,16,0.00,,,0.00,WeatherCatV1.02B3,2013-03-19 02:14:00,
2013-03-18 19:19:00,73.4,24.5,29.87,NW,321,3.0,7.0,16,0.00,,,0.00,WeatherCatV1.02B3,2013-03-19 02:19:00,
2013-03-18 19:24:00,73.4,24.5,29.87,WNW,295,2.0,3.0,16,0.00,,,0.00,WeatherCatV1.02B3,2013-03-19 02:24:00,
2013-03-18 19:29:00,73.2,24.3,29.87,WNW,290,4.0,6.0,16,0.00,,,0.00,WeatherCatV1.02B3,2013-03-19 02:29:00,
2013-03-18 19:34:00,73.3,24.4,29.87,West,271,2.0,6.0,16,0.00,,,0.00,WeatherCatV1.02B3,2013-03-19 02:34:00,
2013-03-18 19:39:00,73.0,25.6,29.87,WNW,299,2.0,3.0,17,0.00,,,0.00,WeatherCatV1.02B3,2013-03-19 02:39:00,
2013-03-18 19:44:00,72.7,25.4,29.88,WNW,296,2.0,4.0,17,0.00,,,0.00,WeatherCatV1.02B3,2013-03-19 02:44:00,
2013-03-18 19:49:00,72.8,24.0,29.88,NW,308,2.0,5.0,16,0.00,,,0.00,WeatherCatV1.02B3,2013-03-19 02:49:00,
2013-03-18 19:54:00,73.0,24.2,29.88,WNW,294,2.0,5.0,16,0.00,,,0.00,WeatherCatV1.02B3,2013-03-19 02:54:00,
2013-03-18 19:59:00,73.1,24.2,29.88,WNW,285,2.0,5.0,16,0.00,,,0.00,WeatherCatV1.02B3,2013-03-19 02:59:00,
2013-03-18 20:04:00,73.1,24.2,29.88,WSW,257,3.0,3.0,16,0.00,,,0.00,WeatherCatV1.02B3,2013-03-19 03:04:00,
2013-03-18 20:09:00,73.1,24.2,29.88,West,274,1.0,4.0,16,0.00,,,0.00,WeatherCatV1.02B3,2013-03-19 03:09:00,
2013-03-18 20:14:00,73.0,24.2,29.88,West,280,4.0,6.0,16,0.00,,,0.00,WeatherCatV1.02B3,2013-03-19 03:14:00,
2013-03-18 20:19:00,72.7,23.9,29.88,West,281,2.0,3.0,16,0.00,,,0.00,WeatherCatV1.02B3,2013-03-19 03:19:00,
2013-03-18 20:24:00,71.9,24.7,29.89,West,279,3.0,3.0,17,0.00,,,0.00,WeatherCatV1.02B3,2013-03-19 03:24:00,
2013-03-18 20:29:00,71.2,24.2,29.89,West,279,1.0,3.0,17,0.00,,,0.00,WeatherCatV1.02B3,2013-03-19 03:29:00,
2013-03-18 20:34:00,70.5,23.6,29.89,West,270,2.0,3.0,17,0.00,,,0.00,WeatherCatV1.02B3,2013-03-19 03:34:00,
2013-03-18 20:39:00,69.9,23.1,29.89,West,270,3.0,3.0,17,0.00,,,0.00,WeatherCatV1.02B3,2013-03-19 03:39:00,
2013-03-18 20:44:00,70.1,23.3,29.89,WNW,294,3.0,5.0,17,0.00,,,0.00,WeatherCatV1.02B3,2013-03-19 03:44:00,
2013-03-18 20:49:00,70.6,25.0,29.89,NW,326,2.0,4.0,18,0.00,,,0.00,WeatherCatV1.02B3,2013-03-19 03:49:00,
2013-03-18 20:54:00,70.6,25.0,29.89,WNW,285,5.0,7.0,18,0.00,,,0.00,WeatherCatV1.02B3,2013-03-19 03:54:00,
2013-03-18 20:59:00,70.8,25.2,29.89,West,279,3.0,4.0,18,0.00,,,0.00,WeatherCatV1.02B3,2013-03-19 03:59:00,
2013-03-18 21:00:00,70.9,25.3,29.89,West,279,2.0,4.0,18,0.00,,,0.00,WeatherCatV1.02B3,2013-03-19 04:00:00,
2013-03-18 21:01:00,70.9,25.3,29.89,WNW,282,2.0,4.0,18,0.00,,,0.00,WeatherCatV1.02B3,2013-03-19 04:01:00,
2013-03-18 21:06:00,71.0,24.0,29.90,WNW,286,3.0,6.0,17,0.00,,,0.00,WeatherCatV1.02B3,2013-03-19 04:06:00,
2013-03-18 21:11:00,71.0,24.0,29.90,WNW,287,3.0,5.0,17,0.00,,,0.00,WeatherCatV1.02B3,2013-03-19 04:11:00,
2013-03-18 21:16:00,71.1,24.1,29.90,West,280,3.0,5.0,17,0.00,,,0.00,WeatherCatV1.02B3,2013-03-19 04:16:00,
2013-03-18 21:21:00,71.0,24.0,29.90,WSW,257,3.0,5.0,17,0.00,,,0.00,WeatherCatV1.02B3,2013-03-19 04:21:00,
2013-03-18 21:26:00,69.5,24.1,29.90,WSW,256,3.0,4.0,18,0.00,,,0.00,WeatherCatV1.02B3,2013-03-19 04:26:00,
2013-03-18 21:31:00,68.1,24.3,29.91,WSW,252,3.0,5.0,19,0.00,,,0.00,WeatherCatV1.02B3,2013-03-19 04:31:00,
2013-03-18 21:36:00,67.5,25.0,29.91,WSW,241,4.0,7.0,20,0.00,,,0.00,WeatherCatV1.02B3,2013-03-19 04:36:00,
2013-03-18 21:41:00,67.2,24.8,29.91,SW,217,4.0,6.0,20,0.00,,,0.00,WeatherCatV1.02B3,2013-03-19 04:41:00,
2013-03-18 21:46:00,67.0,24.6,29.91,WSW,240,3.0,5.0,20,0.00,,,0.00,WeatherCatV1.02B3,2013-03-19 04:46:00,
2013-03-18 21:51:00,66.7,24.4,29.91,West,263,1.0,3.0,20,0.00,,,0.00,WeatherCatV1.02B3,2013-03-19 04:51:00,
2013-03-18 21:56:00,66.4,25.3,29.91,SW,232,2.0,3.0,21,0.00,,,0.00,WeatherCatV1.02B3,2013-03-19 04:56:00,
2013-03-18 22:01:00,66.3,25.2,29.91,WSW,248,4.0,4.0,21,0.00,,,0.00,WeatherCatV1.02B3,2013-03-19 05:01:00,
2013-03-18 22:06:00,66.3,25.2,29.91,WSW,256,4.0,4.0,21,0.00,,,0.00,WeatherCatV1.02B3,2013-03-19 05:06:00,
2013-03-18 22:11:00,66.0,24.9,29.91,WSW,248,3.0,4.0,21,0.00,,,0.00,WeatherCatV1.02B3,2013-03-19 05:11:00,
2013-03-18 22:16:00,65.8,24.8,29.91,WSW,256,1.0,4.0,21,0.00,,,0.00,WeatherCatV1.02B3,2013-03-19 05:16:00,
2013-03-18 22:21:00,65.7,24.7,29.91,SW,221,2.0,5.0,21,0.00,,,0.00,WeatherCatV1.02B3,2013-03-19 05:21:00,
2013-03-18 22:26:00,65.6,24.6,29.92,WSW,242,1.0,3.0,21,0.00,,,0.00,WeatherCatV1.02B3,2013-03-19 05:26:00,
2013-03-18 22:31:00,65.3,24.4,29.91,WSW,240,1.0,4.0,21,0.00,,,0.00,WeatherCatV1.02B3,2013-03-19 05:31:00,
2013-03-18 22:36:00,65.4,25.6,29.92,West,267,2.0,4.0,22,0.00,,,0.00,WeatherCatV1.02B3,2013-03-19 05:36:00,
2013-03-18 22:41:00,65.7,24.7,29.91,WSW,250,1.0,4.0,21,0.00,,,0.00,WeatherCatV1.02B3,2013-03-19 05:41:00,
2013-03-18 22:46:00,65.9,26.0,29.91,WSW,250,1.0,5.0,22,0.00,,,0.00,WeatherCatV1.02B3,2013-03-19 05:46:00,
2013-03-18 22:51:00,66.1,26.2,29.91,WNW,282,3.0,5.0,22,0.00,,,0.00,WeatherCatV1.02B3,2013-03-19 05:51:00,
2013-03-18 22:56:00,66.2,26.2,29.91,WSW,258,1.0,7.0,22,0.00,,,0.00,WeatherCatV1.02B3,2013-03-19 05:56:00,
2013-03-18 23:01:00,66.5,26.5,29.91,WSW,253,4.0,7.0,22,0.00,,,0.00,WeatherCatV1.02B3,2013-03-19 06:01:00,
2013-03-18 23:06:00,66.7,26.7,29.91,WNW,285,5.0,6.0,22,0.00,,,0.00,WeatherCatV1.02B3,2013-03-19 06:06:00,
2013-03-18 23:11:00,66.8,27.8,29.91,SW,229,6.0,6.0,23,0.00,,,0.00,WeatherCatV1.02B3,2013-03-19 06:11:00,
2013-03-18 23:16:00,67.0,29.0,29.91,WSW,257,4.0,7.0,24,0.00,,,0.00,WeatherCatV1.02B3,2013-03-19 06:16:00,
2013-03-18 23:21:00,67.1,29.1,29.91,WSW,250,3.0,3.0,24,0.00,,,0.00,WeatherCatV1.02B3,2013-03-19 06:21:00,
2013-03-18 23:26:00,66.9,28.9,29.91,WSW,243,2.0,4.0,24,0.00,,,0.00,WeatherCatV1.02B3,2013-03-19 06:26:00,
2013-03-18 23:31:00,66.7,30.7,29.91,West,261,2.0,6.0,26,0.00,,,0.00,WeatherCatV1.02B3,2013-03-19 06:31:00,
2013-03-18 23:36:00,66.8,30.8,29.91,West,261,6.0,6.0,26,0.00,,,0.00,WeatherCatV1.02B3,2013-03-19 06:36:00,
2013-03-18 23:41:00,66.8,30.8,29.91,SW,232,2.0,4.0,26,0.00,,,0.00,WeatherCatV1.02B3,2013-03-19 06:41:00,
2013-03-18 23:46:00,66.5,30.6,29.91,SW,231,1.0,3.0,26,0.00,,,0.00,WeatherCatV1.02B3,2013-03-19 06:46:00,
2013-03-18 23:51:00,66.3,31.3,29.91,WSW,243,1.0,2.0,27,0.00,,,0.00,WeatherCatV1.02B3,2013-03-19 06:51:00,
2013-03-18 23:56:00,65.9,31.0,29.91,West,260,3.0,3.0,27,0.00,,,0.00,WeatherCatV1.02B3,2013-03-19 06:56:00,